• In Uzbekistan
  • List of Countries
  • For 7 days
  • Water Temperature
  • Satellite Maps
  • Weather Map
  • Weather Widgets
  • user-avatar
    Login

    Hourly Weather Sulukta

    Today, 26 June, Wednesday

    Time Temperature Precipitation Wind Pressure Humidity
    00:00 +22°C° 0 mm 1 mps 648 mmHg 36%
    01:00 +21°C° 0 mm 1 mps 647 mmHg 37%
    02:00 +21°C° 0 mm 1 mps 647 mmHg 37%
    03:00 +20°C° 0 mm 1 mps 647 mmHg 38%
    04:00 +20°C° 0 mm 1 mps 647 mmHg 38%
    05:00 +20°C° 0 mm 1 mps 646 mmHg 38%
    06:00 +22°C° 0 mm 1 mps 647 mmHg 34%
    07:00 +24°C° 0 mm 1 mps 648 mmHg 30%
    08:00 +26°C° 0 mm 1 mps 649 mmHg 26%
    09:00 +27°C° 0 mm 1 mps 649 mmHg 24%
    10:00 +28°C° 0 mm 2 mps 649 mmHg 23%
    11:00 +29°C° 0 mm 3 mps 649 mmHg 22%
    12:00 +30°C° 0 mm 3 mps 649 mmHg 21%
    13:00 +31°C° 0 mm 3 mps 649 mmHg 20%
    14:00 +31°C° 0 mm 3 mps 649 mmHg 20%
    15:00 +32°C° 0.1 mm 4 mps 648 mmHg 20%
    16:00 +32°C° 0.1 mm 4 mps 648 mmHg 21%
    17:00 +30°C° 0.1 mm 4 mps 648 mmHg 21%
    18:00 +28°C° 0.2 mm 4 mps 648 mmHg 26%
    19:00 +26°C° 0.2 mm 4 mps 647 mmHg 30%
    20:00 +23°C° 0.2 mm 4 mps 647 mmHg 35%
    21:00 +23°C° 0.1 mm 4 mps 647 mmHg 36%
    22:00 +23°C° 0.1 mm 4 mps 646 mmHg 37%
    23:00 +22°C° 0.1 mm 4 mps 646 mmHg 38%

    Tomorrow, 27 June, Thursday

    Time Temperature Precipitation Wind Pressure Humidity
    00:00 +22°C° 0 mm 4 mps 646 mmHg 37%
    01:00 +22°C° 0 mm 4 mps 646 mmHg 36%
    02:00 +22°C° 0 mm 3 mps 645 mmHg 35%
    03:00 +21°C° 0 mm 3 mps 645 mmHg 34%
    04:00 +21°C° 0 mm 2 mps 645 mmHg 33%
    05:00 +21°C° 0 mm 2 mps 645 mmHg 33%
    06:00 +24°C° 0 mm 2 mps 646 mmHg 29%
    07:00 +26°C° 0 mm 1 mps 646 mmHg 25%
    08:00 +27°C° 0 mm 1 mps 647 mmHg 21%
    09:00 +28°C° 0 mm 2 mps 647 mmHg 19%
    10:00 +29°C° 0 mm 3 mps 647 mmHg 18%
    11:00 +30°C° 0 mm 3 mps 647 mmHg 17%
    12:00 +32°C° 0 mm 4 mps 647 mmHg 16%
    13:00 +32°C° 0 mm 4 mps 647 mmHg 16%
    14:00 +33°C° 0 mm 4 mps 647 mmHg 16%
    15:00 +32°C° 0 mm 4 mps 647 mmHg 16%
    16:00 +32°C° 0 mm 4 mps 647 mmHg 17%
    17:00 +32°C° 0 mm 4 mps 647 mmHg 17%
    18:00 +29°C° 0 mm 3 mps 646 mmHg 21%
    19:00 +27°C° 0 mm 2 mps 646 mmHg 25%
    20:00 +25°C° 0 mm 1 mps 646 mmHg 29%
    21:00 +25°C° 0 mm 1 mps 645 mmHg 29%
    22:00 +24°C° 0 mm 1 mps 645 mmHg 29%
    23:00 +24°C° 0 mm 2 mps 645 mmHg 29%

    Day after tomorrow, 28 June, Friday

    Time Temperature Precipitation Wind Pressure Humidity
    00:00 +23°C° 0 mm 2 mps 645 mmHg 31%
    01:00 +23°C° 0 mm 2 mps 645 mmHg 32%
    02:00 +21°C° 0 mm 2 mps 644 mmHg 34%
    03:00 +21°C° 0 mm 2 mps 644 mmHg 35%
    04:00 +21°C° 0 mm 1 mps 644 mmHg 36%
    05:00 +20°C° 0 mm 1 mps 644 mmHg 36%
    06:00 +23°C° 0 mm 1 mps 644 mmHg 32%
    07:00 +25°C° 0 mm 1 mps 645 mmHg 28%
    08:00 +27°C° 0 mm 1 mps 646 mmHg 24%
    09:00 +28°C° 0 mm 1 mps 646 mmHg 23%
    10:00 +29°C° 0 mm 2 mps 646 mmHg 21%
    11:00 +31°C° 0 mm 3 mps 646 mmHg 20%
    12:00 +31°C° 0 mm 3 mps 646 mmHg 20%
    13:00 +31°C° 0 mm 3 mps 646 mmHg 20%
    14:00 +31°C° 0 mm 3 mps 645 mmHg 19%
    15:00 +29°C° 0.3 mm 4 mps 645 mmHg 27%
    16:00 +27°C° 0.3 mm 6 mps 644 mmHg 34%
    17:00 +24°C° 0.3 mm 7 mps 643 mmHg 41%
    18:00 +23°C° 0.4 mm 6 mps 644 mmHg 43%
    19:00 +23°C° 0.4 mm 5 mps 644 mmHg 44%
    20:00 +23°C° 0.4 mm 4 mps 644 mmHg 46%
    21:00 +22°C° 0 mm 3 mps 644 mmHg 46%
    22:00 +23°C° 0 mm 2 mps 645 mmHg 46%
    23:00 +23°C° 0 mm 1 mps 645 mmHg 46%

    29 June, Saturday

    Time Temperature Precipitation Wind Pressure Humidity
    00:00 +22°C° 0 mm 1 mps 644 mmHg 45%
    01:00 +22°C° 0 mm 1 mps 644 mmHg 45%
    02:00 +22°C° 0 mm 1 mps 644 mmHg 44%
    03:00 +22°C° 0 mm 1 mps 644 mmHg 43%
    04:00 +21°C° 0 mm 1 mps 644 mmHg 42%
    05:00 +21°C° 0 mm 1 mps 643 mmHg 41%
    06:00 +23°C° 0 mm 1 mps 644 mmHg 37%
    07:00 +25°C° 0 mm 2 mps 645 mmHg 33%
    08:00 +27°C° 0 mm 2 mps 645 mmHg 28%
    09:00 +28°C° 0 mm 2 mps 646 mmHg 27%
    10:00 +29°C° 0 mm 3 mps 646 mmHg 26%
    11:00 +30°C° 0 mm 4 mps 646 mmHg 25%
    12:00 +32°C° 0.1 mm 4 mps 646 mmHg 25%
    13:00 +32°C° 0.1 mm 4 mps 646 mmHg 25%
    14:00 +31°C° 0.1 mm 3 mps 646 mmHg 24%
    15:00 +32°C° 0.3 mm 4 mps 646 mmHg 26%
    16:00 +30°C° 0.3 mm 4 mps 645 mmHg 29%
    17:00 +30°C° 0.3 mm 4 mps 645 mmHg 31%
    18:00 +27°C° 0.8 mm 5 mps 645 mmHg 37%
    19:00 +24°C° 0.8 mm 6 mps 644 mmHg 43%
    20:00 +22°C° 0.8 mm 7 mps 644 mmHg 49%
    21:00 +22°C° 0 mm 5 mps 644 mmHg 46%
    22:00 +22°C° 0 mm 3 mps 644 mmHg 44%
    23:00 +23°C° 0 mm 2 mps 644 mmHg 41%

    30 June, Sunday

    Time Temperature Precipitation Wind Pressure Humidity
    00:00 +23°C° 0 mm 2 mps 644 mmHg 41%
    01:00 +23°C° 0 mm 2 mps 643 mmHg 41%
    02:00 +22°C° 0 mm 1 mps 643 mmHg 41%
    03:00 +22°C° 0 mm 1 mps 643 mmHg 41%
    04:00 +21°C° 0 mm 1 mps 643 mmHg 41%
    05:00 +21°C° 0 mm 1 mps 643 mmHg 42%
    06:00 +23°C° 0 mm 1 mps 644 mmHg 36%
    07:00 +26°C° 0 mm 1 mps 645 mmHg 31%
    08:00 +28°C° 0 mm 1 mps 645 mmHg 26%
    09:00 +29°C° 0 mm 1 mps 646 mmHg 25%
    10:00 +30°C° 0 mm 2 mps 646 mmHg 23%
    11:00 +31°C° 0 mm 3 mps 646 mmHg 22%
    12:00 +33°C° 0 mm 3 mps 646 mmHg 21%
    13:00 +34°C° 0 mm 3 mps 646 mmHg 21%
    14:00 +34°C° 0 mm 3 mps 646 mmHg 20%
    15:00 +34°C° 0 mm 3 mps 646 mmHg 20%
    16:00 +34°C° 0 mm 3 mps 646 mmHg 20%
    17:00 +34°C° 0 mm 3 mps 646 mmHg 20%
    18:00 +31°C° 0 mm 2 mps 646 mmHg 25%
    19:00 +29°C° 0 mm 2 mps 645 mmHg 29%
    20:00 +28°C° 0 mm 1 mps 645 mmHg 34%
    21:00 +27°C° 0 mm 1 mps 645 mmHg 35%
    22:00 +26°C° 0 mm 1 mps 645 mmHg 36%
    23:00 +26°C° 0 mm 1 mps 645 mmHg 37%

    1 July, Monday

    Time Temperature Precipitation Wind Pressure Humidity
    00:00 +25°C° 0 mm 1 mps 644 mmHg 38%
    01:00 +25°C° 0 mm 1 mps 644 mmHg 38%
    02:00 +24°C° 0 mm 1 mps 644 mmHg 39%
    03:00 +24°C° 0.1 mm 1 mps 644 mmHg 40%
    04:00 +23°C° 0.1 mm 1 mps 644 mmHg 41%
    05:00 +23°C° 0.1 mm 1 mps 644 mmHg 41%
    06:00 +25°C° 0.1 mm 1 mps 645 mmHg 37%
    07:00 +27°C° 0.1 mm 1 mps 645 mmHg 32%
    08:00 +29°C° 0.1 mm 1 mps 646 mmHg 27%
    09:00 +30°C° 0 mm 1 mps 646 mmHg 26%
    10:00 +31°C° 0 mm 2 mps 646 mmHg 25%
    11:00 +33°C° 0 mm 3 mps 647 mmHg 24%
    12:00 +34°C° 0 mm 3 mps 647 mmHg 23%
    13:00 +34°C° 0 mm 3 mps 647 mmHg 22%
    14:00 +35°C° 0 mm 4 mps 647 mmHg 21%
    15:00 +35°C° 0.1 mm 4 mps 647 mmHg 21%
    16:00 +35°C° 0.1 mm 4 mps 647 mmHg 20%
    17:00 +35°C° 0.1 mm 5 mps 647 mmHg 19%
    18:00 +33°C° 0 mm 4 mps 647 mmHg 21%
    19:00 +30°C° 0 mm 3 mps 646 mmHg 23%
    20:00 +28°C° 0 mm 1 mps 646 mmHg 25%
    21:00 +28°C° 0 mm 2 mps 646 mmHg 25%
    22:00 +27°C° 0 mm 2 mps 646 mmHg 26%
    23:00 +26°C° 0 mm 2 mps 646 mmHg 27%
    Show more